Weather History for Wilmington, OH

Change the Weather History Date:

Monday, May 13, 2013

  Actual Average (KDAY) Record (KDAY)
Temperature  
Mean Temperature 48 °F 60 °F  
Max Temperature 60 °F 71 °F 88 °F (1982)
Min Temperature 39 °F 50 °F 33 °F (1996)
Degree Days  
Heating Degree Days 17 6  
Month to date heating degree days 94  
Since 1 July heating degree days 5545  
Cooling Degree Days 0 2  
Month to date cooling degree days 14  
Year to date cooling degree days 24  
Moisture  
Dew Point 32 °F    
Average Humidity 56    
Maximum Humidity 86    
Minimum Humidity 30    
Precipitation  
Precipitation 0.00 in 0.16 in 1.46 in (1933)
Month to date precipitation 1.95  
Year to date precipitation 14.33  
Snow  
Snow 0.00 in 0.00 in 0.00 in ()
Month to date snowfall 0.0  
Since 1 July snowfall 23.3  
Snow Depth -    
Sea Level Pressure  
Sea Level Pressure 30.17 in    
Wind  
Wind Speed 4 mph (WNW)    
Max Wind Speed 13 mph    
Max Gust Speed 22 mph    
Visibility 10 miles    
Events      
T = Trace of Precipitation, MM = Missing Value Source: NWS Daily Summary

Daily Weather History Graph

Daily Weather History Graph

Search for Another Location

Airport:

Trip Planner

Search our weather history database for the weather conditions in past years. The results will help you decide how hot, cold, wet, or windy it might be!

Date:

Astronomy

May. 13, 2013 Rise Set
Actual Time 6:23 AM EDT 8:40 PM EDT
Civil Twilight 5:52 AM EDT 9:10 PM EDT
Nautical Twilight 5:15 AM EDT 9:48 PM EDT
Astronomical Twilight 4:35 AM EDT 10:29 PM EDT
Moon 9:08 AM EDT (5/13) 11:49 PM EDT (5/13)
Length of Visible Light 15h 17m
Length of Day
14h 17m
Waxing Crescent, 12% of the Moon is Illuminated
May 13
Waxing Crescent
May 18
First Quarter
May 25
Full
May 31
Last Quarter
Jun 8
New

Hourly Weather History & Observations

Time (EDT) Temp. Windchill Dew Point Humidity Pressure Visibility Wind Dir Wind Speed Gust Speed Precip Events Conditions
12:54 AM 44.1 °F - 36.0 °F 73% 30.14 in 10.0 mi Calm Calm - N/A   Overcast
1:54 AM 45.0 °F 41.8 °F 35.1 °F 68% 30.15 in 10.0 mi North 5.8 mph - N/A   Overcast
2:54 AM 43.0 °F 38.8 °F 33.1 °F 68% 30.14 in 10.0 mi NE 6.9 mph - N/A   Overcast
3:54 AM 42.1 °F 40.2 °F 32.0 °F 67% 30.14 in 10.0 mi ENE 3.5 mph - N/A   Overcast
4:54 AM 42.1 °F - 32.0 °F 67% 30.14 in 10.0 mi Calm Calm - N/A   Overcast
5:54 AM 41.0 °F - 37.0 °F 86% 30.14 in 10.0 mi Calm Calm - N/A   Overcast
6:54 AM 39.9 °F - 34.0 °F 79% 30.15 in 10.0 mi Calm Calm - N/A   Mostly Cloudy
7:54 AM 43.0 °F 41.3 °F 35.1 °F 74% 30.17 in 10.0 mi South 3.5 mph - N/A   Overcast
8:54 AM 46.9 °F - 33.1 °F 59% 30.19 in 10.0 mi Variable 4.6 mph - N/A   Scattered Clouds
9:54 AM 50.0 °F - 30.0 °F 46% 30.20 in 10.0 mi Calm Calm - N/A   Clear
10:54 AM 52.0 °F - 33.1 °F 49% 30.20 in 10.0 mi Variable 3.5 mph - N/A   Clear
11:54 AM 53.1 °F - 30.9 °F 43% 30.20 in 10.0 mi West 8.1 mph - N/A   Scattered Clouds
12:54 PM 55.0 °F - 28.9 °F 37% 30.19 in 10.0 mi West 9.2 mph 17.3 mph N/A   Mostly Cloudy
1:54 PM 55.9 °F - 32.0 °F 40% 30.18 in 10.0 mi West 9.2 mph - N/A   Mostly Cloudy
2:54 PM 55.0 °F - 30.9 °F 40% 30.18 in 10.0 mi WNW 12.7 mph - N/A   Mostly Cloudy
4:54 PM 57.9 °F - 28.0 °F 32% 30.16 in 10.0 mi NNW 12.7 mph 21.9 mph N/A   Scattered Clouds
5:54 PM 57.9 °F - 26.1 °F 30% 30.16 in 10.0 mi WNW 6.9 mph - N/A   Partly Cloudy
6:54 PM 57.9 °F - 26.1 °F 30% 30.15 in 10.0 mi WNW 9.2 mph - N/A   Partly Cloudy
8:54 PM 53.1 °F - 27.0 °F 37% 30.18 in 10.0 mi West 4.6 mph - N/A   Clear
9:54 PM 48.0 °F - 32.0 °F 54% 30.19 in 10.0 mi WSW 3.5 mph - N/A   Clear
10:54 PM 45.0 °F - 37.9 °F 76% 30.19 in 10.0 mi Calm Calm - N/A   Clear
11:54 PM 44.1 °F - 36.0 °F 73% 30.18 in 10.0 mi Calm Calm - N/A   Clear